Location: Unspecified
(44.4377°N, 88.0525°W)
Time: 04:42:03
(UTC-05:00)

ISS - Pass Details

Date: 27 March 2018
Orbit: 402 x 408 km, 51.6° (Epoch: 19 July)

Event Time Altitude Azimuth Distance (km) Brightness Sun altitude
Rises 22:02:46 0° 282° (WNW) 2,355 1.0 -28.7°
Reaches altitude 10° 22:05:07 10° 297° (WNW) 1,494 -0.1 -29.0°
Enters shadow 22:06:17 17° 312° (NW) 1,146 -0.8 -29.2°
